Effective Sunday, March 17, 2024, the National Weather Service National Data Buoy Center will discontinue its Dial-A-Buoy Interactive Voice Response system. For more information, see Service Change Notice 24-06 (PDF).

Station PPXC1 - 9414847 - Point Potrero, Richmond, CA Image indicating link to RSS feed of recent meteorological observations for station PPXC1


Conditions at PPXC1 as of
(4:48 pm PST on 03/01/2024)
0048 GMT on 03/02/2024:
     

Click on the graph icon in the table below to see a time series plot of the last five days of that observation.

5-day plot - Wind Direction Wind Direction (WDIR): SW ( 230 deg true )
5-day plot - Wind Speed Wind Speed (WSPD): 24.1 kts
5-day plot - Wind Gust Wind Gust (GST): 33.0 kts
5-day plot - Atmospheric Pressure Atmospheric Pressure (PRES):29.78 in
5-day plot - Air Temperature Air Temperature (ATMP): 54.0 °F
5-day plot - Wind Speed at 10 Meters Wind Speed at 10 meters (WSPD10M): 23.3 kts
5-day plot - Wind Speed at 20 Meters Wind Speed at 20 meters (WSPD20M): 27.2 kts
5-day plot -  Wind Speed, Wind Gust and Atmospheric Pressure Combined plot of Wind Speed, Gust, and Air Pressure
NOS Water Level Observation Network Water Level
Previous observations
TIME
(PST)
5-day plot - Wind Direction
WDIR
 
5-day plot - Wind Speed
WSPD
kts
5-day plot - Wind Gust
GST
kts
5-day plot - Wave Height
WVHT
ft
5-day plot - Dominant Wave Period
DPD
sec
5-day plot - Average Wave Period
APD
sec
5-day plot - Mean Wave Direction
MWD
 
5-day plot - Atmospheric Pressure
PRES
in
5-day plot - Pressure Tendency
PTDY
in
5-day plot - Air Temperature
ATMP
°F
5-day plot - Water Temperature
WTMP
°F
5-day plot - Dew Point
DEWP
°F
5-day plot - Salinity
SAL
psu
5-day plot - Visibility
VIS
nmi
5-day plot - Tide (above MLLW)
TIDE
ft
2024-03-01 04:42 pm SW 17.1 27.0----29.79- 54.5-----
2024-03-01 04:24 pmSSW 22.0 33.0----29.79- 54.9-----
2024-03-01 04:18 pmSSW 22.9 29.9----29.79- 55.0-----
2024-03-01 04:00 pmSSW 22.9 31.1----29.79- 56.5-----
2024-03-01 03:54 pmSSW 20.0 35.0----29.79- 56.3-----
2024-03-01 03:48 pmSSW 25.1 34.0----29.79- 56.3-----
2024-03-01 03:18 pmSSW 21.0 28.9----29.81- 55.8-----
2024-03-01 03:06 pmSSW 24.1 33.0----29.81- 56.5-----
2024-03-01 03:00 pmSSW 22.9 31.1----29.81-0.11 56.8-----
2024-03-01 02:54 pmSSW 24.1 31.1----29.81- 56.8-----
2024-03-01 02:42 pmSSW 21.0 28.9----29.83- 56.8-----
2024-03-01 02:30 pmSSW 22.0 31.1----29.83- 56.8-----
2024-03-01 02:24 pmSSW 21.0 28.9----29.83- 56.8-----
2024-03-01 02:18 pmSSW 20.0 28.0----29.83- 56.8-----
2024-03-01 02:12 pmSSW 20.0 28.0----29.83- 56.7-----
2024-03-01 01:54 pm S 20.0 32.1----29.85- 56.7-----
2024-03-01 01:48 pm S 27.0 33.0----29.85- 56.7-----
2024-03-01 01:36 pmSSW 20.0 27.0----29.87- 56.1-----
2024-03-01 01:30 pmSSW 17.1 26.0----29.87- 54.5-----
2024-03-01 01:18 pm SW 19.0 25.1----29.88- 54.0-----
2024-03-01 12:48 pm SW 14.0 21.0----29.90- 54.5-----
2024-03-01 12:42 pm SW 13.0 27.0----29.90- 54.1-----
2024-03-01 12:36 pm S 18.1 22.9----29.91- 54.1-----
2024-03-01 12:30 pm S 19.0 24.1----29.91- 54.5-----
2024-03-01 12:24 pmSSW 20.0 25.1----29.91- 55.2-----
2024-03-01 12:12 pm S 18.1 25.1----29.92- 56.3-----
2024-03-01 12:06 pmSSW 20.0 25.1----29.92- 56.1-----
2024-03-01 12:00 pmSSW 17.1 22.0----29.93-0.03 56.3-----
2024-03-01 11:54 am S 19.0 24.1----29.93- 56.1-----
2024-03-01 11:48 am S 19.0 24.1----29.93- 56.1-----
2024-03-01 11:42 amSSW 19.0 22.9----29.93- 56.1-----
2024-03-01 11:36 amSSW 15.0 22.0----29.93- 56.1-----
2024-03-01 11:24 am SW 17.1 22.9----29.94- 55.9-----
2024-03-01 11:18 amSSW 15.9 22.0----29.94- 55.9-----
2024-03-01 11:12 amSSW 15.0 20.0----29.95- 56.1-----
2024-03-01 11:06 amSSW 13.0 19.0----29.95- 56.1-----
2024-03-01 11:00 amSSW 13.0 19.0----29.95+0.00 55.9-----
2024-03-01 10:54 amSSW 15.0 20.0----29.95- 55.9-----
2024-03-01 10:48 amSSW 15.9 22.0----29.95- 55.9-----
2024-03-01 10:42 amSSW 15.9 21.0----29.95- 55.9-----
2024-03-01 10:36 am SW 15.0 20.0----29.95- 56.1-----
2024-03-01 10:30 amSSW 15.9 21.0----29.95- 55.9-----
2024-03-01 10:24 am SW 15.0 20.0----29.96- 55.9-----
2024-03-01 10:18 am SW 15.9 20.0----29.95- 55.9-----
2024-03-01 10:12 amSSW 12.0 17.1----29.96- 55.6-----
2024-03-01 10:06 amSSW 13.0 18.1----29.96- 55.2-----
2024-03-01 10:00 am S 18.1 21.0----29.96+0.00 54.9-----
2024-03-01 09:54 amSSW 12.0 18.1----29.96- 55.6-----
2024-03-01 09:48 am SW 14.0 21.0----29.96- 55.4-----
2024-03-01 09:42 amSSW 14.0 19.0----29.96- 55.4-----
2024-03-01 09:36 am SW 13.0 19.0----29.96- 55.2-----
2024-03-01 09:30 amSSW 12.0 18.1----29.96- 55.2-----
2024-03-01 09:24 amSSW 13.0 19.0----29.96- 55.0-----
2024-03-01 09:18 amSSW 13.0 17.1----29.96- 55.0-----
2024-03-01 09:12 amSSW 13.0 18.1----29.96- 55.0-----
2024-03-01 09:06 amSSW 12.0 18.1----29.96- 54.9-----
2024-03-01 09:00 am S 14.0 18.1----29.96+0.00 54.9-----
2024-03-01 08:48 amSSW 12.0 18.1----29.96- 54.9-----
2024-03-01 08:18 am S 14.0 18.1----29.96- 54.3-----
2024-03-01 08:12 am S 14.0 18.1----29.96- 54.1-----
2024-03-01 08:00 amSSW 13.0 18.1----29.96+0.00 54.3-----
2024-03-01 07:54 amSSW 12.0 19.0----29.96- 53.6-----
2024-03-01 07:48 amSSW 12.0 17.1----29.96- 54.7-----
2024-03-01 07:36 am SW 13.0 19.0----29.96- 54.7-----
2024-03-01 07:18 am SW 13.0 18.1----29.96- 53.4-----
2024-03-01 07:12 am SW 18.1 22.9----29.95- 52.5-----
2024-03-01 07:06 amSSW 12.0 15.9----29.95- 54.5-----
2024-03-01 07:00 am S 13.0 18.1----29.95-0.01 54.9-----
2024-03-01 06:54 amSSW 13.0 18.1----29.96- 54.7-----
2024-03-01 06:48 am S 9.9 14.0----29.96- 54.7-----
2024-03-01 06:42 amSSW 12.0 15.0----29.96- 54.7-----
2024-03-01 06:36 amSSW 11.1 15.0----29.95- 54.7-----
2024-03-01 06:30 amSSW 11.1 15.0----29.96- 54.7-----
2024-03-01 06:24 am S 13.0 15.9----29.96- 54.7-----
2024-03-01 06:18 amSSW 11.1 15.9----29.96- 54.9-----
2024-03-01 06:12 am S 13.0 18.1----29.96- 54.9-----
2024-03-01 06:06 amSSW 11.1 17.1----29.96- 54.9-----
2024-03-01 06:00 amSSW 12.0 15.9----29.96-0.03 54.7-----
2024-03-01 05:54 am S 13.0 18.1----29.96- 54.9-----
2024-03-01 05:48 am S 14.0 18.1----29.95- 54.7-----
2024-03-01 05:42 am S 15.0 17.1----29.96- 54.7-----
2024-03-01 05:36 am S 13.0 15.9----29.96- 54.7-----
2024-03-01 05:30 am S 13.0 19.0----29.95- 54.9-----
2024-03-01 05:18 amSSW 14.0 17.1----29.96- 54.9-----
2024-03-01 05:12 amSSW 13.0 15.9----29.96- 55.0-----
2024-03-01 05:06 amSSW 11.1 15.0----29.96- 54.9-----
2024-03-01 05:00 amSSW 11.1 15.9----29.96-0.04 54.5-----
2024-03-01 04:54 am S 13.0 15.9----29.96- 54.5-----
2024-03-01 04:48 am S 12.0 15.0----29.96- 54.3-----
2024-03-01 04:42 am S 14.0 15.0----29.96- 54.3-----
2024-03-01 04:36 amSSW 9.9 15.0----29.96- 54.1-----
2024-03-01 04:30 amSSW 11.1 14.0----29.96- 54.1-----
2024-03-01 04:24 amSSW 8.9 14.0----29.96- 54.3-----
2024-03-01 04:18 amSSW 11.1 15.0----29.96- 54.1-----
2024-03-01 04:12 amSSW 9.9 15.0----29.96- 54.1-----
2024-03-01 04:06 am S 12.0 14.0----29.96- 54.0-----
2024-03-01 04:00 am S 11.1 14.0----29.96-0.03 54.0-----
2024-03-01 03:54 amSSW 12.0 15.0----29.96- 53.8-----
2024-03-01 03:48 am S 11.1 13.0----29.97- 54.0-----
2024-03-01 03:42 amSSW 9.9 14.0----29.97- 54.0-----
2024-03-01 03:36 amSSW 8.9 14.0----29.97- 54.0-----
2024-03-01 03:30 amSSW 11.1 15.0----29.97- 54.1-----
2024-03-01 03:24 am SW 9.9 13.0----29.97- 54.0-----
2024-03-01 03:18 am SW 9.9 13.0----29.98- 54.0-----
2024-03-01 03:12 am SW 9.9 13.0----29.98- 54.1-----
2024-03-01 03:06 am SW 6.0 8.9----29.98- 53.8-----
2024-03-01 03:00 am SW 7.0 11.1----29.98-0.01 53.6-----
2024-03-01 02:54 amWSW 7.0 12.0----29.99- 53.4-----
2024-03-01 02:48 amWSW 8.0 12.0----29.99- 53.1-----
2024-03-01 02:42 am W 9.9 17.1----29.99- 53.1-----
2024-03-01 02:36 am W 9.9 14.0----29.99- 53.8-----
2024-03-01 02:24 am SW 9.9 14.0----29.98- 55.0-----
2024-03-01 02:18 am SW 9.9 14.0----29.98- 55.0-----
2024-03-01 02:12 am SW 9.9 13.0----29.99- 55.4-----
2024-03-01 02:06 am SW 8.9 12.0----29.99- 55.2-----
2024-03-01 02:00 am SW 8.9 12.0----29.99-0.01 55.0-----
2024-03-01 01:54 am SW 9.9 14.0----29.99- 54.0-----
2024-03-01 01:48 amSSW 11.1 14.0----30.00- 54.1-----
2024-03-01 01:42 amSSW 11.1 15.0----30.00- 53.8-----
2024-03-01 01:36 am SW 9.9 15.9----30.00- 54.5-----
2024-03-01 01:30 am SW 9.9 15.0----30.00- 54.9-----
2024-03-01 01:24 am SW 12.0 15.0----30.00- 55.0-----
2024-03-01 01:18 am SW 11.1 15.0----30.00- 54.9-----
2024-03-01 01:12 am SW 9.9 14.0----30.00- 54.3-----
2024-03-01 01:06 am SW 11.1 15.0----30.00- 53.8-----
2024-03-01 01:00 am SW 12.0 18.1----30.00- 53.2-----
2024-03-01 12:54 am SW 14.0 19.0----29.99- 52.9-----
2024-03-01 12:48 am SW 14.0 17.1----29.99- 53.4-----
2024-03-01 12:42 amSSW 11.1 15.9----29.99- 54.0-----
2024-03-01 12:36 amSSW 12.0 15.9----29.99- 54.1-----
2024-03-01 12:30 amSSW 11.1 17.1----29.99- 54.5-----
2024-03-01 12:24 amSSW 12.0 17.1----29.99- 54.0-----
2024-03-01 12:18 amSSW 11.1 18.1----30.00- 53.8-----
2024-03-01 12:12 amSSW 12.0 19.0----29.99- 53.4-----
2024-03-01 12:06 amSSW 12.0 15.9----30.00- 53.8-----
2024-03-01 12:00 amSSW 13.0 17.1----30.00+0.00 53.6-----
2024-02-29 11:54 pmSSW 14.0 19.0----29.99- 53.6-----
2024-02-29 11:48 pm SW 14.0 19.0----29.99- 54.1-----
2024-02-29 11:42 pm SW 12.0 15.0----30.00- 54.3-----
2024-02-29 11:36 pm SW 9.9 13.0----30.00- 54.5-----
2024-02-29 11:30 pmSSW 8.0 13.0----30.00- 53.8-----
2024-02-29 11:24 pm S 9.9 12.0----30.00- 53.4-----
2024-02-29 11:18 pm S 9.9 13.0----30.00- 53.4-----
2024-02-29 11:00 pmSSW 8.0 12.0----30.00+0.00 54.1-----
2024-02-29 10:54 pm SW 8.9 13.0----30.00- 54.0-----
2024-02-29 10:48 pm SW 9.9 13.0----30.00- 53.4-----
2024-02-29 10:42 pm W 8.9 15.9----30.01- 53.4-----
2024-02-29 10:36 pmWSW 13.0 18.1----30.01- 54.3-----
2024-02-29 10:30 pm SW 13.0 15.9----30.01- 54.5-----
2024-02-29 10:24 pm SW 14.0 17.1----30.01- 54.7-----
2024-02-29 10:18 pm SW 15.0 18.1----30.00- 54.7-----
2024-02-29 10:12 pm SW 15.0 19.0----30.00- 54.5-----
2024-02-29 10:06 pm SW 15.0 18.1----30.00- 54.7-----
2024-02-29 09:48 pmSSW 11.1 18.1----30.01- 54.9-----
2024-02-29 09:30 pm SW 15.0 19.0----30.00- 54.9-----
2024-02-29 09:24 pm SW 15.9 19.0----30.00- 54.9-----
2024-02-29 09:18 pmSSW 12.0 17.1----30.00- 54.9-----
2024-02-29 09:12 pmSSW 11.1 15.0----30.00- 55.0-----
2024-02-29 09:06 pm SW 13.0 15.0----30.00- 54.9-----
2024-02-29 09:00 pm SW 12.0 15.0----30.01+0.02 55.0-----
2024-02-29 08:54 pm SW 12.0 15.9----30.00- 55.0-----
2024-02-29 08:48 pm SW 13.0 15.9----30.00- 55.0-----
2024-02-29 08:42 pm SW 11.1 15.0----30.01- 55.0-----
2024-02-29 08:36 pm SW 11.1 14.0----30.00- 55.0-----
2024-02-29 08:30 pm SW 11.1 15.0----30.01- 54.9-----
2024-02-29 08:24 pm SW 9.9 13.0----30.01- 54.9-----
2024-02-29 08:12 pm SW 9.9 15.9----30.01- 54.9-----
2024-02-29 08:06 pm SW 8.9 11.1----30.00- 54.7-----
2024-02-29 08:00 pm SW 11.1 13.0----30.00- 54.7-----
2024-02-29 07:48 pm SW 9.9 13.0----30.00- 54.5-----
2024-02-29 07:36 pm SW 8.9 12.0----30.00- 54.5-----
2024-02-29 07:30 pm SW 8.0 9.9----30.00- 54.5-----
2024-02-29 07:18 pmWSW 7.0 11.1----30.00- 54.1-----
2024-02-29 06:48 pm W 9.9 15.0----30.00- 54.3-----
2024-02-29 06:18 pm SW 7.0 11.1----29.99- 53.8-----
2024-02-29 06:00 pm SW 8.9 11.1----29.99- 53.6-----
2024-02-29 05:54 pmWSW 8.9 13.0----29.99- 53.4-----
2024-02-29 05:48 pmWSW 8.0 13.0----29.98- 53.2-----
2024-02-29 05:36 pm W 8.0 15.0----29.98- 53.2-----
2024-02-29 05:12 pm W 14.0 18.1----29.97- 53.2-----
2024-02-29 05:06 pm W 15.9 19.0----29.97- 53.4-----
2024-02-29 04:54 pm W 14.0 15.9----29.98- 54.3-----